EW5790 Weather Reports


Display with metric or nautical units.
time (UTC)temp
F
wind
direction
speed
MPH
gust
MPH
rain 1hr
in
rain 24hr
in
rain mn
in
humidity
%
barometer
mb
20260505090041 54 149 0.0 0.0 0.00 0.00 0.00 43 1010.3
20260505084534 55 107 0.0 0.0 0.00 0.00 0.00 48 1010.4
20260505083026 56 107 0.0 0.0 0.00 0.00 0.00 54 1010.3
20260505081522 57 107 0.0 0.0 0.00 0.00 0.00 61 1010.5
20260505080037 58 107 0.0 0.0 0.00 0.00 0.00 62 1010.1
20260505074525 57 107 0.0 0.0 0.00 0.00 0.00 63 1010.0
20260505073028 57 134 0.0 0.0 0.00 0.00 0.00 62 1009.9
20260505071519 58 134 0.0 0.0 0.00 0.00 0.00 65 1010.0
20260505070016 58 134 0.0 0.0 0.00 0.00 0.00 64 1010.1
20260505064513 59 80 0.0 0.0 0.00 0.00 0.00 65 1010.1
20260505063011 59 228 0.0 0.0 0.00 0.00 0.00 68 1010.3
20260505061506 61 228 0.0 0.0 0.00 0.00 0.00 69 1010.3
20260505060003 63 228 0.0 0.0 0.00 0.00 0.00 66 1010.4
20260505054559 65 238 0.0 0.0 0.00 0.00 0.00 61 1010.5
20260505053056 66 182 0.0 0.0 0.00 0.00 0.00 60 1010.5
20260505051552 66 281 0.0 0.0 0.00 0.00 0.00 59 1010.4
20260505041548 68 181 0.0 0.0 0.00 0.00 0.00 57 1009.9
20260505040042 68 230 0.0 0.0 0.00 0.00 0.00 57 1009.8
20260505034538 68 190 0.0 0.0 0.00 0.00 0.00 56 1009.7
20260505033038 68 189 0.0 0.0 0.00 0.00 0.00 57 1009.4
20260505031530 68 38 0.0 0.0 0.00 0.00 0.00 56 1009.4
20260505030024 68 175 0.0 0.0 0.00 0.00 0.00 58 1009.4
20260505024524 68 181 0.0 0.0 0.00 0.00 0.00 58 1009.0
20260505023015 68 136 0.0 0.0 0.00 0.00 0.00 58 1009.0
20260505021513 68 164 0.0 0.0 0.00 0.00 0.00 59 1008.9
20260505020014 67 177 0.0 0.0 0.00 0.00 0.00 60 1008.8
20260505014508 66 129 0.0 0.0 0.00 0.00 0.00 62 1008.8
20260505013003 66 190 0.0 0.0 0.00 0.00 0.00 64 1009.0
20260505011600 67 190 0.0 0.0 0.00 0.00 0.00 62 1009.0
20260505010056 68 190 0.0 0.0 0.00 0.00 0.00 58 1008.9
20260505004555 71 190 0.0 0.0 0.00 0.00 0.00 54 1009.0
20260505003045 72 190 0.0 0.0 0.00 0.00 0.00 49 1009.0
20260505001545 74 157 0.0 0.0 0.00 0.00 0.00 47 1009.0
20260505000036 75 171 0.0 0.0 0.00 0.00 0.00 45 1009.0
20260504234532 76 178 0.0 0.0 0.00 0.00 0.00 45 1009.0
20260504233028 76 205 0.0 0.0 0.00 0.00 0.00 43 1009.3
20260504231522 76 232 0.0 0.0 0.00 0.00 0.00 44 1009.3
20260504230018 76 239 0.0 0.0 0.00 0.00 0.00 42 1009.4
20260504224514 77 267 0.0 0.0 0.00 0.00 0.00 40 1009.6
20260504223010 78 269 0.0 0.0 0.00 0.00 0.00 45 1009.4
20260504221504 77 286 0.0 0.0 0.00 0.00 0.00 45 1009.4
20260504220107 77 188 0.0 0.0 0.00 0.00 0.00 44 1009.5
20260504214605 78 136 0.0 0.0 0.00 0.00 0.00 46 1009.5
20260504213055 78 34 0.0 0.0 0.00 0.00 0.00 43 1009.6
20260504211547 78 294 0.0 0.0 0.00 0.00 0.00 40 1009.4
20260504210055 79 284 0.0 0.0 0.00 0.00 0.00 41 1009.4
20260504204552 79 126 0.0 0.0 0.00 0.00 0.00 44 1009.5
20260504203035 77 269 0.0 0.0 0.00 0.00 0.00 45 1009.8
20260504201528 79 271 0.0 0.0 0.00 0.00 0.00 43 1010.0
20260504200025 79 276 0.0 0.0 0.00 0.00 0.00 42 1010.2
20260504194521 80 24 0.0 0.0 0.00 0.00 0.00 48 1010.6
20260504193016 79 241 0.0 0.0 0.00 0.00 0.00 45 1010.8
20260504191511 79 216 0.0 0.0 0.00 0.00 0.00 45 1010.8
20260504190006 78 289 0.0 0.0 0.00 0.00 0.00 48 1011.2
20260504184502 78 135 0.0 0.0 0.00 0.00 0.00 46 1011.2
20260504183104 77 146 0.0 0.0 0.00 0.00 0.00 48 1011.4
20260504181553 77 278 0.0 0.0 0.00 0.00 0.00 50 1011.7
20260504180058 76 196 0.0 0.0 0.00 0.00 0.00 54 1011.7
20260504174546 75 302 0.0 0.0 0.00 0.00 0.00 48 1012.0
20260504173041 75 283 0.0 0.0 0.00 0.00 0.00 53 1012.0
20260504171537 74 5 0.0 0.0 0.00 0.00 0.00 53 1012.3